Regional Weather Roundup
Issued by NWS Charleston, SC

Current Version | Previous Version | Graphics & Text | Print | Product List | Glossary On
Versions: 1 2 3 4 5 6 7 8 9 10 11 12 13 14 15 16 17 18 19 20 21 22 23 24 25 26 27 28 29 30 31 32 33 34 35 36 37 38 39 40 41 42 43 44 45 46 47 48 49 50
000 ASUS42 KCHS 061313 RWRCHS REGIONAL WEATHER ROUNDUP NATIONAL WEATHER SERVICE CHARLESTON SC 900 AM EDT FRI MAY 06 2016 NOTE: "FAIR" INDICATES FEW OR NO CLOUDS BELOW 12,000 FEET WITH NO SIGNIFICANT WEATHER AND/OR OBSTRUCTIONS TO VISIBILITY. NOT ALL STATIONS ARE QUALITY CONTROLLED. USE DATA WITH CAUTION... ESPECIALLY DEWPOINT OBSERVATIONS. SCZ027-030-031-034>040-042>050-061400- ...SOUTHEAST SOUTH CAROLINA... CITY SKY/WX TMP DP RH WIND PRES REMARKS N CHARLESTON PTSUNNY 56 46 69 W9 29.82S WATERFRONT PRK N/A 55 47 74 W7 29.82R MOUNT PLEASANT PTSUNNY 57 48 72 NW9 29.82R JOHNS ISLAND PTSUNNY 59 46 63 W12 29.83S PINOPOLIS N/A 57 50 77 W9 29.73R MONCKS CORNER CLOUDY 54 43 66 W6 29.82R SUMMERVILLE NOT AVBL BEAUFORT MCAS PTSUNNY 55 47 74 W7 29.86R BEAUFORT ARPT CLOUDY 55 46 71 W7 29.85R HILTON HEAD IS SUNNY 61 48 63 NW7 29.86R WALTERBORO CLOUDY 55 46 71 W8 29.85R ALLENDALE CLOUDY 54 45 71 CALM 29.85S ...SOUTHERN MIDLANDS AND PEE DEE... CITY SKY/WX TMP DP RH WIND PRES REMARKS GEORGETOWN FAIR 55 45 67 NW8 29.80S KINGSTREE CLOUDY 54 46 76 W6 29.80R ORANGEBURG MOSUNNY 56 45 66 NW7 29.83R BARNWELL CLOUDY 55 48 76 CALM 29.86R AIKEN CLOUDY 52 45 76 NW7 29.88R MANNING FAIR 57 46 67 NW8 29.81R COLUMBIA PTSUNNY 60 46 59 NW7 29.81R SUMTER CLOUDY 56 47 70 NW12 29.78R FLORENCE MOSUNNY 57 48 72 W9 29.77F MYRTLE BEACH PTSUNNY 55 43 62 NW8 29.79S N MYRTLE BEACH PTSUNNY 54 49 83 W7 29.76S $$ GAZ063-065-086>088-099>101-113>116-118-119-134>141-150-061400- ...SOUTHEAST GEORGIA... CITY SKY/WX TMP DP RH WIND PRES REMARKS SAVANNAH ARPT MOSUNNY 56 44 64 NW9 29.88R HUNTER AAF SUNNY 56 46 70 W8 29.85R FORT STEWART SUNNY 55 43 63 NW5 29.86R STATESBORO SUNNY 58 49 72 NW7 29.87S SYLVANIA SUNNY 56 47 73 NW6 29.87S CLAXTON FAIR 55 47 76 W6 29.89S ...CSRA...CENTRAL AND FAR SOUTHEAST GEORGIA... CITY SKY/WX TMP DP RH WIND PRES REMARKS THOMSON SUNNY 55 48 77 NW8 29.91R AUGUSTA-BUSH SUNNY 57 45 64 NW6 29.86R AUGUSTA-DANIEL SUNNY 57 42 57 NW8 29.86R SWAINSBORO FAIR 54 45 71 NW6 29.89R VIDALIA SUNNY 54 43 66 NW8 29.89S EASTMAN FAIR 55 46 71 NW5 29.93R HAZLEHURST FAIR 54 45 70 NW6 29.89S ALMA SUNNY 54 43 66 NW8 29.90R WAYCROSS SUNNY 55 44 67 N9 29.90S JESUP FAIR 55 46 71 NW9 29.89R BAXLEY FAIR 55 45 67 NW9 29.90R BRUNSWICK SUNNY 61 50 67 NW8 29.89S SAINT SIMONS SUNNY 55 44 66 NW8 29.87S $$ SCZ027-028-034-036>038-045-046-048>050-GAZ119-141-061400- ...LAKE AND SUPPLEMENTAL COASTAL OBSERVATIONS... STATION/POSITION TIME TEMP WIND PRES WAVE SWELL AIR SEA DIR/SP/G HT/PER HT/PER/DIR (UTC) (F) (DEG/KT/KT) (MB) (FT/S) (FT/S/D) WINYAH BAY NOT AVBL LAKE MURRAY 1200 56 290/ 4/ 9 1009.1R ACE BASIN NERRS NOT AVBL FORT PULASKI 1200 54 71 290/ 9/ 12 1011.0R SAPELO ISLAND 1200 54 300/ 10 1011.0S $$ ANZ835-935-AMZ111-154-330-350-352-354-370-450-454-472-061400- ...C-MAN AND BUOY OBSERVATIONS... STATION/POSITION TIME TEMP WIND PRES WAVE SWELL AIR SEA DIR/SP/G HT/PER HT/PER/DIR (UTC) (F) (DEG/KT/KT) (MB) (FT/S) (FT/S/D) BUOY 41004 1250 59 72 300/ 16/ 19 1008.9R 4/ 5 BUOY 41008 NOT AVBL FOLLY BEACH CMAN 1300 58 280/ 6/ 10 1010.2R CAPERS NEARSHORE 1208 56 69 310/ 14/ 19 1008.9R FRIPP NEARSHORE 1208 57 68 300/ 12/ 16 1009.5R STATION/POSITION TIME TEMP WIND PRES WAVE SWELL AIR SEA DIR/SP/G HT/PER HT/PER/DIR (UTC) (F) (DEG/KT/KT) (MB) (FT/S) (FT/S/D) 5E ST. MARYS GA 1221 70 N/A 3/ 5 FRYING PAN BUOY 1200 58 72 270/ 17/ 21 1006.8R BUOY 41025 1250 61 76 270/ 14/ 21 1004.8R 5/ 8 5/ 70/ 8 CAPE LOOKOUT NC 1300 55 260/ 13/ 15 1005.5R BUOY 41002 1250 70 73 280/ 12/ 19 1007.7R 8/ 9 7/230/ 9 BUOY 41010 1220 72 79 300/ 14/ 17 1009.1R ST AUGUSTINE FL 1300 56 69 320/ 10/ 13 1013.0R $$

USA.gov is the U.S. government's official web portal to all federal, state and local government web resources and services.